This demonstration page uses our WeatherBlox Daily Observations layout. Learn more.

Left ArrowRight Arrow

39.51506, -84.39828

Hourly Observations for March 22, 2021

Temp ( °F °C ) Dew Point ( °F °C ) Humidity (%) Winds ( mph kmh ) Pressure ( in mb ) Visibility ( mi km ) Precip ( " mm )
12:15 am 00:15 Clear 41 5.1 37 2.8 85 85 NE 3 6 30.28 1025 10 16 N/A
12:35 am 00:35 Clear 40 4.6 35 1.4 80 80 NNE 3 6 30.28 1025 10 16 N/A
12:55 am 00:55 Clear 40 4.7 35 1.4 79 79 NNE 3 6 30.28 1025 10 16 N/A
1:15 am 01:15 Clear 41 4.9 34 1.1 77 77 N N/A 30.28 1025 10 16 N/A
1:35 am 01:35 Clear 39 4.1 35 1.6 84 84 NE 5 7 30.28 1026 10 16 N/A
1:55 am 01:55 Clear 39 3.9 35 1.4 84 84 NNE 3 6 30.28 1026 10 16 N/A
2:15 am 02:15 Clear 38 3.5 35 1.5 87 87 N 5 7 30.29 1026 10 16 N/A
2:35 am 02:35 Clear 37 3 34 1.3 89 89 N 3 6 30.28 1025 10 16 N/A
2:55 am 02:55 Clear 36 2.3 34 1.1 92 92 N 3 6 30.28 1025 10 16 N/A
3:15 am 03:15 Clear 37 2.6 35 1.7 94 94 N N/A 30.28 1025 10 16 N/A
3:35 am 03:35 Clear 35 1.6 33 0.5 93 93 NW 5 7 30.28 1025 10 16 N/A
3:55 am 03:55 Clear 34 1.2 33 0.5 95 95 NNW 3 6 30.28 1025 10 16 N/A
4:15 am 04:15 Clear 35 1.4 34 0.9 97 97 N 3 6 30.28 1025 10 16 N/A
4:35 am 04:35 Clear 35 1.9 34 1 94 94 N 3 6 30.28 1025 10 16 N/A
4:55 am 04:55 Clear 36 2.1 34 1.2 94 94 NE 3 6 30.27 1025 10 16 N/A
5:15 am 05:15 Clear 35 1.8 34 1 95 95 N N/A 30.27 1025 10 16 N/A
5:35 am 05:35 Clear 35 1.6 33 0.8 94 94 N N/A 30.27 1025 10 16 N/A
5:55 am 05:55 Clear 35 1.5 33 0.8 95 95 N N/A 30.27 1025 10 16 N/A
6:15 am 06:15 Clear 33 0.7 32 0.1 96 96 N N/A 30.27 1025 10 16 N/A
6:35 am 06:35 Clear 34 1.1 33 0.5 96 96 N N/A 30.28 1025 10 16 N/A
6:55 am 06:55 Clear 34 1.2 33 0.6 96 96 NE 3 6 30.28 1025 10 16 N/A
7:15 am 07:15 Clear 34 1 33 0.4 96 96 N N/A 30.28 1025 10 16 N/A
7:35 am 07:35 Clear 34 1.3 33 0.7 96 96 N N/A 30.28 1025 10 16 N/A
7:55 am 07:55 Sunny 34 1 33 0.4 96 96 NNE 3 6 30.29 1026 10 16 N/A
8:15 am 08:15 Sunny 34 0.9 33 0.4 97 97 N N/A 30.30 1026 10 16 N/A
8:35 am 08:35 Sunny 36 2 35 1.6 97 97 N N/A 30.30 1026 10 16 N/A
8:55 am 08:55 Sunny 39 4 37 2.8 92 92 N N/A 30.29 1026 10 16 N/A
9:15 am 09:15 Sunny 42 5.8 37 3 82 82 N N/A 30.29 1026 10 16 N/A
9:35 am 09:35 Sunny 46 8 39 3.7 75 75 N N/A 30.27 1025 10 16 N/A
9:55 am 09:55 Sunny 50 9.9 38 3.3 64 64 N N/A 30.27 1025 10 16 N/A
10:15 am 10:15 Sunny 53 11.9 38 3.5 57 57 SW 3 6 30.26 1025 10 16 N/A
10:35 am 10:35 Sunny 57 13.8 37 2.7 47 47 S 7 11 30.26 1025 10 16 N/A
10:55 am 10:55 Sunny 58 14.5 37 2.9 46 46 SW 3 6 30.25 1024 10 16 N/A
11:15 am 11:15 Sunny 61 15.9 38 3.1 43 43 S 9 15 30.24 1024 10 16 N/A
11:35 am 11:35 Sunny 62 16.5 38 3.5 42 42 SSW 8 13 30.24 1024 10 16 N/A
11:55 am 11:55 Sunny 63 17.1 38 3.4 40 40 SSW 9 15 30.23 1024 10 16 N/A
12:15 pm 12:15 Sunny 64 17.5 39 4.1 41 41 SW 10 17 30.22 1023 10 16 N/A
12:35 pm 12:35 Sunny 64 17.7 40 4.3 41 41 SSW 9 15 30.22 1023 10 16 N/A
12:55 pm 12:55 Sunny 64 18 40 4.4 41 41 SW 8 13 30.21 1023 10 16 N/A
1:15 pm 13:15 Sunny 66 18.7 40 4.7 40 40 SW 7 11 30.20 1023 10 16 N/A
1:35 pm 13:35 Sunny 67 19.5 42 5.4 40 40 WSW 9 15 30.19 1022 10 16 N/A
1:55 pm 13:55 Partly Cloudy 68 19.8 42 5.5 39 39 WSW 7 11 30.18 1022 10 16 N/A
2:15 pm 14:15 Partly Cloudy 68 20.1 37 2.9 32 32 S 7 11 30.15 1021 10 16 N/A
2:35 pm 14:35 Mostly Cloudy 68 20 40 4.2 35 35 SW 15 24 30.14 1021 10 16 N/A
2:55 pm 14:55 Partly Cloudy 69 20.4 39 3.8 34 34 SSW 13 20 30.12 1020 10 16 N/A
3:15 pm 15:15 Partly Cloudy 67 19.6 39 3.9 36 36 S 9 15 30.12 1020 10 16 N/A
3:35 pm 15:35 Partly Cloudy 68 19.9 38 3.6 34 34 S 5 7 30.10 1019 10 16 N/A
3:55 pm 15:55 Mostly Cloudy 68 19.9 39 3.7 34 34 SSE 9 15 30.09 1019 10 16 N/A
4:15 pm 16:15 Partly Cloudy 70 20.9 40 4.2 34 34 S 13 20 30.08 1019 10 16 N/A
4:35 pm 16:35 Sunny 70 21.3 38 3.3 31 31 S 13 20 30.07 1018 10 16 N/A
4:55 pm 16:55 Sunny 69 20.3 37 3 32 32 S 13 20 30.07 1018 10 16 N/A
5:15 pm 17:15 Partly Cloudy 69 20.3 38 3.4 33 33 SSW 13 20 30.06 1018 10 16 N/A
5:35 pm 17:35 Partly Cloudy 69 20.5 38 3.3 32 32 SSW 12 19 30.06 1018 10 16 N/A
5:55 pm 17:55 Mostly Cloudy 68 20.1 38 3.2 33 33 SW 7 11 30.06 1018 10 16 N/A
6:15 pm 18:15 Sunny 68 20.2 36 2.2 30 30 S 6 9 30.05 1018 10 16 N/A
6:35 pm 18:35 Partly Cloudy 67 19.6 37 3 33 33 S 8 13 30.06 1018 10 16 N/A
6:55 pm 18:55 Sunny 67 19.3 38 3.1 34 34 S 7 11 30.06 1018 10 16 N/A
7:15 pm 19:15 Sunny 66 19 38 3.3 35 35 S 8 13 30.06 1018 10 16 N/A
7:35 pm 19:35 Sunny 66 18.8 38 3.4 36 36 SSE 7 11 30.06 1018 10 16 N/A
7:55 pm 19:55 Clear 64 18 38 3.4 38 38 SSE 3 6 30.06 1018 10 16 N/A
8:15 pm 20:15 Clear 62 16.5 39 3.7 43 43 S 3 6 30.06 1018 10 16 N/A
8:35 pm 20:35 Clear 55 13 41 5.2 59 59 N N/A 30.07 1018 10 16 N/A
8:55 pm 20:55 Clear 52 10.9 42 5.6 70 70 N N/A 30.09 1019 10 16 N/A
9:15 pm 21:15 Clear 53 11.7 42 5.5 66 66 NE 3 6 30.08 1019 10 16 N/A
9:35 pm 21:35 Clear 50 9.8 42 5.6 75 75 N N/A 30.09 1019 10 16 N/A
9:55 pm 21:55 Clear 51 10.6 42 5.6 71 71 NNE 5 7 30.09 1019 7 11 N/A
10:15 pm 22:15 Clear 48 8.7 42 5.6 81 81 N N/A 30.09 1019 7 11 N/A
10:35 pm 22:35 Clear 47 8.2 41 5.1 81 81 N N/A 30.09 1019 10 16 N/A
10:55 pm 22:55 Clear 47 8.6 43 6.3 86 86 NNE 5 7 30.10 1019 7 11 N/A
11:15 pm 23:15 Clear 45 7.3 41 5.1 86 86 N N/A 30.11 1019 10 16 N/A
11:35 pm 23:35 Clear 45 7.2 42 5.7 90 90 NNW 5 7 30.11 1020 10 16 N/A
11:55 pm 23:55 Clear 44 6.4 40 4.6 88 88 NNE 3 6 30.11 1020 10 16 N/A

Powered by AerisWeather